GW5798 Weather Reports


Display with metric or nautical units.
time (UTC)temp
F
wind
direction
speed
MPH
gust
MPH
rain 1hr
in
rain 24hr
in
rain mn
in
humidity
%
barometer
mb
20260503041112 61 0.0 0.0 0.00 0.00 0.00 84 1021.0
20260503040122 61 0.0 0.0 0.00 0.00 0.00 83 1021.2
20260503035052 62 0.0 0.0 0.00 0.00 0.00 82 1021.1
20260503034042 62 0.0 0.0 0.00 0.00 0.00 80 1020.9
20260503033032 62 0.0 0.0 0.00 0.00 0.00 80 1020.7
20260503032022 62 0.0 0.0 0.00 0.00 0.00 80 1020.6
20260503031112 62 0.0 0.0 0.00 0.00 0.00 79 1020.5
20260503025112 62 0.0 0.0 0.00 0.00 0.00 76 1020.5
20260503024102 63 0.0 0.0 0.00 0.00 0.00 75 1020.5
20260503023052 63 0.0 0.0 0.00 0.00 0.00 74 1020.3
20260503022022 64 0.0 0.0 0.00 0.01 0.00 73 1020.1
20260503021113 64 0.0 0.0 0.00 0.01 0.00 71 1020.0
20260503015113 66 0.0 0.0 0.00 0.03 0.00 67 1020.0
20260503014043 66 0.0 0.0 0.00 0.05 0.00 65 1019.7
20260503013033 67 0.0 0.0 0.00 0.09 0.00 64 1019.7
20260503012023 67 0.0 0.0 0.00 0.10 0.00 63 1019.5
20260503011114 69 0.0 0.0 0.00 0.11 0.00 61 1019.5
20260503010104 70 0.0 0.0 0.00 0.14 0.00 57 1019.4
20260503005114 71 0.0 0.0 0.00 0.18 0.00 56 1019.4
20260503004044 72 0.0 1.0 0.00 0.19 0.00 52 1019.1
20260503003114 73 345 0.0 2.0 0.00 0.20 0.00 50 1019.0
20260503002104 73 345 1.0 2.0 0.00 0.21 0.00 48 1018.9
20260503001115 73 28 1.0 3.0 0.00 0.24 0.00 47 1018.9
20260503000105 74 285 1.0 2.0 0.00 0.26 0.00 46 1018.8
20260502235055 74 280 1.0 4.0 0.00 0.30 0.00 45 1018.8
20260502234045 74 15 1.0 4.0 0.00 0.33 0.00 45 1018.8
20260502233055 74 271 1.0 4.0 0.00 0.37 0.00 45 1018.8
20260502232025 75 331 1.0 3.0 0.00 0.38 0.00 45 1018.8
20260502231115 75 110 1.0 4.0 0.00 0.39 0.00 45 1018.8
20260502230105 75 98 1.0 4.0 0.00 0.42 0.00 45 1018.7
20260502225055 75 56 1.0 4.0 0.00 0.53 0.00 45 1018.7
20260502224045 75 188 1.0 7.0 0.00 0.58 0.00 44 1018.7
20260502223035 75 286 1.0 4.0 0.00 0.58 0.00 45 1018.6
20260502222025 75 57 1.0 4.0 0.00 0.58 0.00 43 1018.8
20260502221136 75 169 1.0 6.0 0.00 0.58 0.00 44 1018.8
20260502220106 75 317 2.0 6.0 0.00 0.58 0.00 45 1018.8
20260502215056 75 267 2.0 6.0 0.00 0.58 0.00 44 1018.7
20260502214046 76 146 1.0 4.0 0.00 0.58 0.00 46 1019.0
20260502213036 76 337 2.0 4.0 0.00 0.58 0.00 43 1019.0
20260502212026 76 76 2.0 4.0 0.00 0.58 0.00 43 1019.0
20260502211016 76 216 1.0 3.0 0.00 0.60 0.00 44 1019.1
20260502210107 76 351 1.0 6.0 0.00 0.62 0.00 44 1019.1
20260502205057 76 329 2.0 7.0 0.00 0.63 0.00 45 1019.2
20260502204107 76 144 2.0 6.0 0.00 0.64 0.00 45 1019.4
20260502203037 76 337 2.0 8.0 0.00 0.65 0.00 45 1019.6
20260502202027 76 18 2.0 3.0 0.00 0.69 0.00 46 1019.5
20260502201037 76 109 2.0 6.0 0.00 0.74 0.00 45 1019.7
20260502200108 76 93 2.0 4.0 0.00 0.77 0.00 44 1019.9
20260502195118 75 322 2.0 4.0 0.00 0.79 0.00 46 1020.0
20260502194047 75 78 2.0 4.0 0.00 0.81 0.00 47 1020.1
20260502193038 75 356 2.0 6.0 0.00 0.83 0.00 47 1020.2
20260502192028 75 63 1.0 4.0 0.00 0.84 0.00 49 1020.3
20260502191017 74 272 2.0 7.0 0.00 0.85 0.00 49 1020.4
20260502190108 74 285 3.0 8.0 0.00 0.86 0.00 49 1020.5
20260502185059 74 48 2.0 4.0 0.00 1.05 0.00 51 1020.7
20260502184108 74 356 2.0 7.0 0.00 1.15 0.00 50 1020.7
20260502182028 73 105 3.0 7.0 0.00 1.17 0.00 49 1021.0
20260502181018 73 324 2.0 6.0 0.00 1.35 0.00 51 1021.1
20260502180109 73 265 2.0 7.0 0.00 1.43 0.00 53 1021.2
20260502170110 71 250 1.0 6.0 0.00 1.64 0.00 57 1021.5
20260502164050 70 357 2.0 8.0 0.00 1.65 0.00 57 1021.5
20260502163040 69 337 1.0 3.0 0.00 1.66 0.00 61 1021.4
20260502162030 69 277 2.0 7.0 0.00 1.68 0.00 63 1021.4
20260502161020 68 219 2.0 4.0 0.00 1.71 0.00 64 1021.4
20260502160111 67 224 1.0 6.0 0.00 1.75 0.00 64 1021.3
20260502152111 66 119 1.0 4.0 0.00 1.88 0.00 70 1021.0
20260502151100 65 112 2.0 6.0 0.00 1.88 0.00 71 1021.2
20260502150111 64 37 2.0 10.0 0.00 1.88 0.00 72 1021.1
20260502130113 55 296 1.0 3.0 0.00 2.16 0.00 91 1020.0
20260502123043 53 292 0.0 2.0 0.00 2.22 0.00 95 1019.4
20260502122033 53 295 1.0 2.0 0.00 2.22 0.00 95 1019.3
20260502121023 52 298 0.0 2.0 0.00 2.23 0.00 95 1019.5
20260502120114 52 352 0.0 1.0 0.00 2.24 0.00 95 1019.2
20260502115104 52 0.0 0.0 0.00 2.24 0.00 95 1019.1
20260502114114 52 0.0 1.0 0.00 2.24 0.00 94 1019.0
20260502113044 53 323 0.0 1.0 0.00 2.25 0.00 94 1018.9
20260502112034 53 314 0.0 3.0 0.00 2.25 0.00 94 1018.8
20260502111024 53 329 0.0 2.0 0.00 2.25 0.00 93 1018.7
20260502110114 53 340 1.0 2.0 0.00 2.25 0.00 93 1018.5
20260502105104 53 346 0.0 1.0 0.00 2.25 0.00 92 1018.5
20260502104054 53 183 0.0 2.0 0.00 2.26 0.00 92 1018.4
20260502103044 54 328 0.0 1.0 0.00 2.27 0.00 92 1018.2
20260502102034 54 287 0.0 2.0 0.00 2.27 0.00 91 1018.1
20260502101025 54 0.0 2.0 0.00 2.28 0.00 91 1018.0
20260502100215 54 0.0 2.0 0.00 2.28 0.00 90 1017.9
20260502091045 55 121 2.0 7.0 0.00 2.59 0.00 87 1016.8
20260502090116 56 118 0.0 2.0 0.00 2.98 0.00 88 1016.7
20260502071027 55 115 0.0 2.0 0.00 3.19 0.00 93 1016.7
20260502070016 55 47 1.0 2.0 0.00 3.20 0.00 93 1016.8
20260502065107 56 345 0.0 2.0 0.00 3.20 0.00 93 1016.8
20260502064057 56 222 1.0 3.0 0.00 3.21 0.00 92 1016.7
20260502063047 56 28 1.0 3.0 0.00 3.22 0.00 93 1016.8
20260502062037 56 62 1.0 3.0 0.00 3.22 0.00 93 1016.5
20260502061028 56 264 0.0 3.0 0.00 3.22 0.00 94 1016.4
20260502060017 56 16 1.0 4.0 0.00 3.22 0.00 94 1016.6
20260502055108 56 82 1.0 6.0 0.00 3.22 0.00 95 1016.6
20260502054058 56 96 1.0 4.0 0.00 3.22 0.00 95 1016.4
20260502053048 56 85 2.0 8.0 0.00 3.23 0.00 95 1016.5
20260502052038 56 39 2.0 6.0 0.00 3.23 0.00 95 1016.4
20260502051048 56 194 1.0 7.0 0.00 3.24 0.00 95 1016.2
20260502050018 56 18 2.0 6.0 0.00 3.24 0.00 96 1016.1
20260502045109 56 160 1.0 4.0 0.00 3.25 3.24 96 1016.0
20260502044059 56 25 1.0 8.0 0.00 3.37 3.24 96 1015.9
20260502043050 56 186 1.0 6.0 0.00 3.47 3.24 96 1016.0
20260502042039 56 252 1.0 3.0 0.00 3.47 3.24 96 1016.2